Погода в Варкале

Индия     8°43′51″N   76°43′03″E
темп.,
°C
ветер,
м/с
пор.,
м/с
влажн.,
%
обл.,
%
осадки,
мм/ч
давл.,
гПа
погр.,
м
12 апреля, пн
пн1223:30+25всв11864 4.1 101373
02:30+25св128519 0.9 101050
05:30+24всв11877 1.3 101164
08:30+28ссв117418 0.0 1013282
11:30+31юз335941 0.0 10121249
14:30+30зюз446583 0.1 1010611
17:30+29юз23727 4.6 1010282
20:30+26юв11817 1.9 101229
13 апреля, вт
вт1323:30+26в128347 2.9 1013124
02:30+25в118575 0.1 1010103
05:30+25в118711 0.1 101197
08:30+28в11755 0.0 1013314
11:30+31ююз336133 0.1 10121147
14:30+30юз446463 0.2 1009973
17:30+28юз2476100 3.6 1010404
20:30+26вюв0181100 2.2 1011273
14 апреля, ср
ср1423:30+26всв018289 2.2 1012347
02:30+26ссв118512 0.0 1010318
05:30+25ссв129019 0.1 101075
08:30+27вюв018034 0.3 1013307
11:30+30юз326640 0.4 10121036
14:30+30зюз4368100 0.8 1009923
17:30+29зюз337260 1.6 1009773
20:30+27сз238181 1.6 1011324
15 апреля, чт
чт1523:30+26с128469 1.9 1012267
02:30+25ссв128967 0.8 101071
05:30+25сз128989 2.9 1010133
08:30+26ссв2284100 4.3 1013283
11:30+30зсз2268100 5.9 1012844
14:30+29зсз546999 0.4 1009841
17:30+29зсз347039 0.8 1009572
20:30+27сз247892 0.2 1011365
16 апреля, пт
пт1623:30+26ссз238278 0.3 1011330
02:30+25с1286100 0.0 1009143
05:30+24св2294100 2.4 1010101
08:30+27с2283100 1.7 1012249
11:30+30з2165100 1.9 1011886
14:30+30зюз3368100 0.9 1009819
17:30+29з3369100 1.1 1009585
20:30+28зсз1276100 0.0 1011352